Location: Austin
(30.3000°N, 97.7500°W)
Time: 13:20:16
(UTC-06:00)

MOS 1 Rocket - Pass Details

Date: 03 October 2025
Orbit: 609 x 814 km, 97.4° (Epoch: 14 January)

Event Time Altitude Azimuth Distance (km) Brightness Sun altitude
Rises 20:08:59 0° 174° (S) 3,277 6.7 -12.8°
Reaches altitude 10° 20:11:22 10° 177° (S) 2,330 5.9 -13.3°
Maximum altitude 20:16:29 66° 259° (W) 825 3.9 -14.4°
Drops below altitude 10° 20:21:22 10° 342° (NNW) 2,222 6.2 -15.5°
Sets 20:23:36 0° 345° (NNW) 3,114 6.9 -16.0°
